User: anonymous   Login
Location: Azul
(36.7830°S, 59.8500°W)
Time: 02:13:01
(UTC-03:00)
Language:

ESTCUBE 1 - Orbit

View from above orbital plane
View from above orbital plane
View from above satellite
View from above satellite

Ground track
Ground track

The orbit data is extracted from the following two-line orbital elements,

1 39161U 13021C   21295.75813277  .00000345  00000-0  61939-4 0  9990
2 39161  97.9305  13.9773 0010604 101.5196 258.7201 14.72557244454480
Epoch (UTC): 22 October 2021 18:11:42
Eccentricity: 0.0010604
inclination: 97.9305°
perigee height: 645 km
apogee height: 660 km
right ascension of ascending node: 13.9773°
argument of perigee: 101.5196°
revolutions per day: 14.72557244
mean anomaly at epoch: 258.7201°
orbit number at epoch: 45448

The dashed part of the orbit path shows where the satellite is in the earth's shadow,  

DLR